TimeMDT,TemperatureF,Dew PointF,Humidity,Sea Level PressureIn,VisibilityMPH,Wind Direction,Wind SpeedMPH,Gust SpeedMPH,PrecipitationIn,Events,Conditions,WindDirDegrees,DateUTC
12:53 AM,57.9,28.0,32,29.99,10.0,Calm,Calm,-,N/A,,Clear,0,2013-08-16 06:53:00
1:53 AM,57.0,30.0,36,29.99,10.0,Calm,Calm,-,N/A,,Clear,0,2013-08-16 07:53:00
2:53 AM,57.0,30.9,37,29.96,10.0,ENE,9.2,-,N/A,,Clear,70,2013-08-16 08:53:00
3:53 AM,53.1,30.9,43,30.00,10.0,West,3.5,-,N/A,,Clear,260,2013-08-16 09:53:00
4:53 AM,48.9,34.0,56,30.01,10.0,Calm,Calm,-,N/A,,Clear,0,2013-08-16 10:53:00
5:53 AM,48.0,32.0,54,30.03,10.0,North,6.9,-,N/A,,Clear,360,2013-08-16 11:53:00
6:53 AM,48.0,33.1,56,30.05,10.0,East,4.6,-,N/A,,Clear,80,2013-08-16 12:53:00
7:53 AM,55.9,34.0,44,30.06,10.0,Calm,Calm,-,N/A,,Clear,0,2013-08-16 13:53:00
8:53 AM,60.1,33.1,36,30.08,10.0,Calm,Calm,-,N/A,,Clear,0,2013-08-16 14:53:00
9:53 AM,66.0,30.9,27,30.07,10.0,Calm,Calm,-,N/A,,Clear,0,2013-08-16 15:53:00
10:53 AM,73.9,28.9,19,30.05,10.0,Variable,3.5,-,N/A,,Clear,0,2013-08-16 16:53:00
11:53 AM,79.0,25.0,14,30.03,10.0,Variable,3.5,-,N/A,,Clear,0,2013-08-16 17:53:00
12:53 PM,86.0,19.0,8,29.98,10.0,NE,4.6,-,N/A,,Clear,50,2013-08-16 18:53:00
1:53 PM,84.9,15.1,7,29.97,10.0,Calm,Calm,-,N/A,,Clear,0,2013-08-16 19:53:00
2:53 PM,86.0,15.1,7,29.96,10.0,ESE,8.1,-,N/A,,Clear,120,2013-08-16 20:53:00
3:53 PM,87.1,17.1,8,29.95,10.0,WSW,6.9,-,N/A,,Clear,240,2013-08-16 21:53:00
4:53 PM,84.9,16.0,8,29.96,10.0,West,6.9,-,N/A,,Clear,260,2013-08-16 22:53:00
5:53 PM,86.0,16.0,7,29.96,10.0,Calm,Calm,-,N/A,,Clear,0,2013-08-16 23:53:00
6:53 PM,84.9,15.1,7,29.95,10.0,NW,5.8,-,N/A,,Clear,320,2013-08-17 00:53:00
7:53 PM,78.1,21.0,12,29.96,10.0,Calm,Calm,-,N/A,,Clear,0,2013-08-17 01:53:00
8:53 PM,69.1,24.1,18,29.98,10.0,Calm,Calm,-,N/A,,Clear,0,2013-08-17 02:53:00
9:53 PM,66.9,19.0,16,29.98,10.0,NW,4.6,-,N/A,,Clear,320,2013-08-17 03:53:00
10:53 PM,63.0,19.9,19,29.96,10.0,Calm,Calm,-,N/A,,Clear,0,2013-08-17 04:53:00
11:53 PM,60.1,26.1,27,29.96,10.0,NNW,3.5,-,N/A,,Clear,340,2013-08-17 05:53:00